Showing default

FLOCK 4G 26, 62633

Orbit data source: Space-Track

FLOCK 4G 26, 62633 is a payload satellite owned by Planet (US) in SSO that was launched on Tue, 14 Jan 2025 UTC via an FALCON 9 launch vehicle from the Air Force Western Test Range (AFWTR). Payload-class satellites include a variety of spacecraft equipped with specific instruments for various scientific and technological missions. These include communications satellites like Starlink; space stations such as the ISS; scientific satellites like the Hubble; Earth observation satellites from companies like Planet Labs, Umbra, and HawkEye 360; GPS; miniature CubeSats for education and research; and military/defense satellites.

Loading next visibility...
Identifier
62633, 2025-009AA
Orbit
SSO
Country
Flag of USUS
Related business
Manufacturer
Planet
Mission
Operational Commercial Imaging
Bus & Motor
CUBESAT 3U, Unknown motor
Mass
5.7 kg wet, 5.7 kg dry
Launch date (UTC)
2025-01-14 (2 years ago)
Launch vehicle
FALCON 9
Launch site
Air Force Western Test Range (AFWTR)
Object type
Payload
Rocket body
Debris
Shape & HBR
Box + 2 Pan, 1.0 m
Radar Cross Section
0.072 m², Medium (>0.1 m² and < 1m²)

Expand to show TLE details & history
Last TLE update: 17 hours ago

TLE from 17 hours ago
0 FLOCK 4G 26
1 62633U 25009AA  26255.67638936  .00008038  00000-0  26961-3 0  9990
2 62633  97.3973 337.3635 0003100  19.5399 340.5960 15.31153494 92295
Epoch: 2026-09-12T16:14Z
TLE epoch observation values (Epoch: 2026-09-12T16:14:00.040Z)
Latitude
-0.00008°
Longitude
102.18137°
Altitude
473.472 km
Speed
7.63 km/s
True Right ascension
22h 29m 27s
True Declination
0° 00' 00"
Sunlit
Object was in full shadow at epoch
Visualization orbit readout
Latitude
Unknown
Longitude
Unknown
Altitude
Unknown
Speed
Unknown
Apparent Right ascension
Unknown
Apparent Declination
Unknown
Sunlit
N/A
Visualization observer readout
Local Sidereal Time
01:56:28
Azimuth
Unknown
Elevation
Unknown
Doppler factor
Unknown
Orbital elements
Apogee altitude
471.443 km
Perigee altitude
467.197 km
Semi-major axis
6,847.457 km
Eccentricity
0.00031
Inclination
97.3973°
RAAN
337.3635°
Arg. of periapsis
19.5399°
True anomaly
340.58419°
Mean anomaly
340.596°
Eccentric anomaly
340.5901°
Mean motion
3.83044 °/min
Orbital period
93.98 mins
BSTAR
0.00026961
Loading maneuver chart data...
Computing Atmospheric mass density...
Loading historical data...
Loading historical data...
Loading historical data...
Loading historical data...
Loading historical data...
Loading historical data...
Loading historical data...

Documentation

Showing up to 5 results
|